Weather History for KBTA - April, 2013

Change the Weather History Date:

Thursday, April 25, 2013

  Actual Average (KOMA) Record (KOMA)
Temperature  
Mean Temperature 50 °F 55 °F  
Max Temperature 69 °F 67 °F 91 °F (1954)
Min Temperature 30 °F 44 °F 27 °F (1873)
Degree Days  
Heating Degree Days 16 10  
Month to date heating degree days 365  
Since 1 July heating degree days 5954  
Cooling Degree Days 0 1  
Month to date cooling degree days 9  
Year to date cooling degree days 10  
Moisture  
Dew Point 31 °F    
Average Humidity 53    
Maximum Humidity 86    
Minimum Humidity 23    
Precipitation  
Precipitation 0.00 in 0.11 in 1.48 in (1957)
Month to date precipitation 2.35  
Year to date precipitation 5.91  
Snow  
Snow 0.00 in 0.00 in - ()
Month to date snowfall 0.9  
Since 1 July snowfall 26.3  
Snow Depth -    
Sea Level Pressure  
Sea Level Pressure 30.14 in    
Wind  
Wind Speed 9 mph (SSW)    
Max Wind Speed 24 mph    
Max Gust Speed 32 mph    
Visibility 10 miles    
Events      
T = Trace of Precipitation, MM = Missing Value Source: NWS Daily Summary

Daily Weather History Graph

Daily Weather History Graph

Search for Another Location

Airport or City:

Trip Planner

Search our weather history database for the weather conditions in past years. The results will help you decide how hot, cold, wet, or windy it might be!

Date:

Astronomy

Apr. 25, 2013 Rise Set
Actual Time 6:29 AM CDT 8:15 PM CDT
Civil Twilight 5:59 AM CDT 8:45 PM CDT
Nautical Twilight 5:24 AM CDT 9:21 PM CDT
Astronomical Twilight 4:45 AM CDT 10:00 PM CDT
Moon 8:30 PM CDT 6:13 AM CDT
Length of Visible Light 14h 45m
Length of Day
13h 46m
Full, 100% of the Moon is Illuminated
Apr 25
Full
Apr 25
Full
May 2
Last Quarter
May 9
New
May 17
First Quarter

Hourly Weather History & Observations

Time (CDT) Temp. Windchill Dew Point Humidity Pressure Visibility Wind Dir Wind Speed Gust Speed Precip Events Conditions
12:15 AM 37.4 °F 33.8 °F 29.8 °F 74% 30.19 in 10.0 mi West 4.6 mph - N/A   Clear
12:35 AM 37.6 °F 34.0 °F 29.5 °F 73% 30.19 in 10.0 mi WNW 4.6 mph - N/A   Clear
12:55 AM 36.3 °F 32.5 °F 29.3 °F 76% 30.19 in 10.0 mi WNW 4.6 mph - N/A   Clear
1:15 AM 35.6 °F 31.7 °F 29.1 °F 77% 30.19 in 10.0 mi WNW 4.6 mph - N/A   Clear
1:55 AM 35.6 °F - 28.9 °F 77% 30.19 in 10.0 mi Calm Calm - N/A   Clear
2:15 AM 34.7 °F 30.6 °F 28.8 °F 79% 30.19 in 10.0 mi West 4.6 mph - N/A   Clear
2:35 AM 35.2 °F 32.4 °F 28.6 °F 77% 30.19 in 10.0 mi WSW 3.5 mph - N/A   Clear
2:55 AM 34.0 °F 31.0 °F 28.4 °F 80% 30.19 in 10.0 mi WSW 3.5 mph - N/A   Clear
3:15 AM 34.2 °F 30.0 °F 28.4 °F 79% 30.19 in 10.0 mi WSW 4.6 mph - N/A   Clear
3:35 AM 32.9 °F 28.5 °F 28.2 °F 83% 30.19 in 10.0 mi SW 4.6 mph - N/A   Clear
3:55 AM 32.4 °F 29.1 °F 27.7 °F 83% 30.19 in 10.0 mi SW 3.5 mph - N/A   Clear
4:15 AM 32.0 °F 27.5 °F 28.0 °F 85% 30.20 in 10.0 mi SW 4.6 mph - N/A   Clear
4:35 AM 32.2 °F 28.9 °F 28.0 °F 85% 30.20 in 10.0 mi SW 3.5 mph - N/A   Clear
4:55 AM 32.5 °F 29.3 °F 28.6 °F 85% 30.20 in 10.0 mi West 3.5 mph - N/A   Clear
5:15 AM 33.1 °F 27.7 °F 28.6 °F 84% 30.21 in 10.0 mi WSW 5.8 mph - N/A   Clear
5:35 AM 30.9 °F 25.2 °F 26.2 °F 83% 30.21 in 10.0 mi SSW 5.8 mph - N/A   Clear
5:55 AM 31.3 °F 27.9 °F 27.0 °F 84% 30.21 in 10.0 mi WSW 3.5 mph - N/A   Clear
6:15 AM 30.4 °F 25.6 °F 26.6 °F 86% 30.21 in 10.0 mi SSW 4.6 mph - N/A   Clear
6:35 AM 30.7 °F 26.0 °F 26.8 °F 85% 30.21 in 10.0 mi SSW 4.6 mph - N/A   Clear
6:55 AM 31.6 °F 27.0 °F 26.8 °F 82% 30.22 in 10.0 mi SW 4.6 mph - N/A   Clear
7:15 AM 31.5 °F 26.8 °F 27.5 °F 85% 30.23 in 10.0 mi WSW 4.6 mph - N/A   Clear
7:35 AM 32.9 °F 29.8 °F 28.2 °F 83% 30.23 in 10.0 mi WSW 3.5 mph - N/A   Clear
7:55 AM 34.0 °F - 29.5 °F 84% 30.23 in 10.0 mi Calm Calm - N/A   Clear
8:15 AM 35.6 °F 32.8 °F 30.9 °F 83% 30.24 in 10.0 mi SW 3.5 mph - N/A   Clear
8:35 AM 37.6 °F - 31.6 °F 79% 30.24 in 10.0 mi Calm Calm - N/A   Clear
8:55 AM 39.2 °F - 31.6 °F 74% 30.25 in 10.0 mi Calm Calm - N/A   Clear
9:15 AM 41.2 °F 39.2 °F 32.9 °F 72% 30.25 in 10.0 mi SW 3.5 mph - N/A   Clear
9:35 AM 43.2 °F 39.7 °F 32.5 °F 66% 30.25 in 10.0 mi SW 5.8 mph - N/A   Clear
9:55 AM 45.1 °F 40.3 °F 33.3 °F 63% 30.25 in 10.0 mi SSW 9.2 mph - N/A   Clear
10:15 AM 46.0 °F 41.4 °F 33.3 °F 61% 30.24 in 10.0 mi SSW 9.2 mph - N/A   Clear
10:35 AM 47.7 °F - 32.9 °F 57% 30.24 in 10.0 mi South 9.2 mph - N/A   Clear
10:55 AM 50.0 °F - 33.3 °F 53% 30.24 in 10.0 mi SSW 13.8 mph 18.4 mph N/A   Clear
11:15 AM 51.3 °F - 32.4 °F 48% 30.23 in 10.0 mi SSW 11.5 mph 16.1 mph N/A   Clear
11:35 AM 53.8 °F - 32.7 °F 45% 30.23 in 10.0 mi SSW 12.7 mph - N/A   Clear
11:55 AM 55.6 °F - 29.3 °F 37% 30.22 in 10.0 mi SSW 16.1 mph 19.6 mph N/A   Clear
12:15 PM 56.1 °F - 30.6 °F 38% 30.21 in 10.0 mi South 16.1 mph - N/A   Clear
12:35 PM 57.0 °F - 30.6 °F 37% 30.20 in 10.0 mi SSW 15.0 mph - N/A   Clear
12:55 PM 59.7 °F - 29.7 °F 32% 30.20 in 10.0 mi SSW 12.7 mph 20.7 mph N/A   Clear
1:15 PM 60.6 °F - 29.8 °F 31% 30.18 in 10.0 mi South 13.8 mph 18.4 mph N/A   Clear
1:35 PM 61.2 °F - 28.8 °F 29% 30.17 in 10.0 mi South 12.7 mph 20.7 mph N/A   Clear
1:55 PM 61.7 °F - 28.9 °F 29% 30.16 in 10.0 mi South 12.7 mph 23.0 mph N/A   Clear
2:15 PM 63.5 °F - 28.8 °F 27% 30.14 in 10.0 mi South 16.1 mph 28.8 mph N/A   Clear
2:35 PM 65.1 °F - 28.9 °F 26% 30.13 in 10.0 mi SSE 17.3 mph 25.3 mph N/A   Clear
2:55 PM 65.7 °F - 29.5 °F 26% 30.11 in 10.0 mi South 19.6 mph 25.3 mph N/A   Clear
3:15 PM 65.8 °F - 29.3 °F 25% 30.10 in 10.0 mi South 20.7 mph 25.3 mph N/A   Clear
3:35 PM 67.3 °F - 30.0 °F 25% 30.09 in 10.0 mi South 21.9 mph 28.8 mph N/A   Clear
3:55 PM 68.0 °F - 30.2 °F 24% 30.08 in 10.0 mi South 19.6 mph 28.8 mph N/A   Clear
4:15 PM 67.5 °F - 29.8 °F 25% 30.08 in 10.0 mi South 21.9 mph 31.1 mph N/A   Clear
4:35 PM 68.4 °F - 31.5 °F 25% 30.07 in 10.0 mi South 23.0 mph 32.2 mph N/A   Clear
4:55 PM 68.4 °F - 32.0 °F 26% 30.05 in 10.0 mi South 18.4 mph 25.3 mph N/A   Clear
5:15 PM 69.8 °F - 30.4 °F 23% 30.04 in 10.0 mi South 19.6 mph 28.8 mph N/A   Clear
5:35 PM 69.1 °F - 30.0 °F 23% 30.04 in 10.0 mi South 21.9 mph 28.8 mph N/A   Clear
5:55 PM 69.8 °F - 30.6 °F 23% 30.03 in 10.0 mi South 21.9 mph 28.8 mph N/A   Clear
6:15 PM 69.1 °F - 30.0 °F 23% 30.03 in 10.0 mi South 24.2 mph 32.2 mph N/A   Clear
6:35 PM 68.4 °F - 30.9 °F 25% 30.02 in 10.0 mi South 23.0 mph 27.6 mph N/A   Clear
6:55 PM 67.6 °F - 31.8 °F 26% 30.02 in 10.0 mi South 18.4 mph 29.9 mph N/A   Clear
7:15 PM 66.6 °F - 32.4 °F 28% 30.02 in 10.0 mi South 17.3 mph - N/A   Clear
7:35 PM 65.8 °F - 32.4 °F 29% 30.01 in 10.0 mi South 21.9 mph 25.3 mph N/A   Clear
7:55 PM 64.6 °F - 32.4 °F 30% 30.01 in 10.0 mi South 17.3 mph 25.3 mph N/A   Clear
8:15 PM 63.0 °F - 32.9 °F 32% 30.01 in 10.0 mi South 18.4 mph 25.3 mph N/A   Clear
8:35 PM 61.7 °F - 33.1 °F 34% 30.02 in 10.0 mi South 16.1 mph - N/A   Clear
8:55 PM 61.0 °F - 33.1 °F 35% 30.03 in 10.0 mi South 15.0 mph - N/A   Clear
9:15 PM 60.4 °F - 33.1 °F 36% 30.03 in 10.0 mi South 17.3 mph 21.9 mph N/A   Clear
9:35 PM 59.9 °F - 33.6 °F 37% 30.04 in 10.0 mi South 15.0 mph - N/A   Clear
9:55 PM 57.7 °F - 34.3 °F 41% 30.05 in 10.0 mi South 12.7 mph - N/A   Clear
10:15 PM 58.1 °F - 34.2 °F 41% 30.05 in 10.0 mi South 12.7 mph - N/A   Clear
10:35 PM 57.2 °F - 34.2 °F 42% 30.05 in 10.0 mi South 15.0 mph - N/A   Clear
10:55 PM 57.2 °F - 34.2 °F 42% 30.05 in 10.0 mi South 16.1 mph - N/A   Clear
11:15 PM 57.2 °F - 34.5 °F 43% 30.05 in 10.0 mi South 17.3 mph - N/A   Clear
11:35 PM 56.8 °F - 34.7 °F 43% 30.05 in 10.0 mi South 17.3 mph - N/A   Clear
11:55 PM 55.6 °F - 34.7 °F 45% 30.05 in 10.0 mi South 16.1 mph - N/A   Clear